This demonstration page uses our WeatherBlox Daily Observations layout. Learn more.

Left ArrowRight Arrow

39.51506, -84.39828

Hourly Observations for June 27, 2018

Temp ( °F °C ) Dew Point ( °F °C ) Humidity (%) Winds ( mph kmh ) Pressure ( in mb ) Visibility ( mi km ) Precip ( " mm )
12:15 am 00:15 Clear 68 20.2 67 19.4 95 95 S 5 7 29.91 1013 10 16 0.00 0.00
12:35 am 00:35 Partly Cloudy 69 20.4 67 19.4 94 94 S 8 13 29.88 1012 10 16 0.00 0.00
12:55 am 00:55 Clear 69 20.7 67 19.4 92 92 SSE 8 13 29.85 1011 10 16 0.00 0.00
1:15 am 01:15 Clear 69 20.7 67 19.3 92 92 S 5 7 29.85 1011 10 16 0.00 0.00
1:35 am 01:35 Mostly Cloudy 69 20.8 67 19.4 92 92 SSW 8 13 29.88 1012 10 16 0.00 0.00
1:55 am 01:55 Partly Cloudy 69 20.8 67 19.4 92 92 S 9 15 29.85 1011 10 16 0.00 0.00
2:15 am 02:15 Mostly Cloudy 69 20.7 67 19.4 92 92 S 10 17 29.85 1011 10 16 0.00 0.00
2:35 am 02:35 Partly Cloudy 69 20.6 67 19.4 93 93 S 7 11 29.85 1011 10 16 0.00 0.00
2:55 am 02:55 Mostly Cloudy with Nearby Thunderstorms 69 20.7 67 19.4 92 92 S 6 9 29.88 1012 10 16 0.00 0.00
3:15 am 03:15 Partly Cloudy 69 20.6 67 19.3 92 92 S 6 9 29.88 1012 10 16 0.00 0.00
3:35 am 03:35 Clear 69 20.6 67 19.2 92 92 S 9 15 29.88 1012 10 16 0.00 0.00
3:55 am 03:55 Cloudy 69 20.7 67 19.3 92 92 SSW 8 13 29.85 1011 10 16 0.00 0.00
4:15 am 04:15 Mostly Cloudy 69 20.7 67 19.2 91 91 S 7 11 29.85 1011 10 16 0.00 0.00
4:35 am 04:35 Cloudy 69 20.7 67 19.2 91 91 SW 6 9 29.85 1011 10 16 0.00 0.00
4:55 am 04:55 Cloudy 69 20.7 67 19.3 92 92 SSW 8 13 29.85 1011 10 16 0.00 0.00
5:15 am 05:15 Clear 69 20.6 67 19.3 92 92 SSW 8 13 29.85 1011 10 16 0.00 0.00
5:35 am 05:35 Cloudy 69 20.7 67 19.5 93 93 SSW 8 13 29.85 1011 10 16 0.00 0.00
5:55 am 05:55 Cloudy 69 20.7 67 19.4 92 92 SSW 8 13 29.85 1011 10 16 0.00 0.00
6:15 am 06:15 Cloudy 69 20.8 67 19.5 92 92 SSW 10 17 29.85 1011 10 16 0.00 0.00
6:35 am 06:35 Cloudy 69 20.7 67 19.4 92 92 SSW 12 19 29.85 1011 10 16 0.00 0.00
6:55 am 06:55 Cloudy 69 20.7 67 19.3 92 92 SSW 14 22 29.88 1012 10 16 0.00 0.00
7:10 am 07:10 Cloudy 70 20.9 67 19.3 91 91 SSW 12 19 29.85 1011 10 16 0.00 0.00
7:35 am 07:35 Cloudy 70 21 67 19.4 91 91 SSW 12 19 29.88 1012 10 16 0.00 0.00
7:55 am 07:55 Cloudy 70 21.1 67 19.4 90 90 SSW 12 19 29.88 1012 10 16 0.00 0.00
8:15 am 08:15 Cloudy 71 21.4 67 19.4 88 88 SSW 14 22 29.88 1012 10 16 0.00 0.00
8:35 am 08:35 Cloudy 71 21.8 67 19.6 87 87 SW 15 24 29.85 1011 10 16 0.00 0.00
8:55 am 08:55 Mostly Cloudy 73 22.5 67 19.5 83 83 SW 14 22 29.85 1011 10 16 0.00 0.00
9:15 am 09:15 Mostly Cloudy 73 23 67 19.5 81 81 WSW 13 20 29.88 1012 10 16 0.00 0.00
9:35 am 09:35 Cloudy 74 23.1 67 19.6 81 81 WSW 13 20 29.85 1011 10 16 0.00 0.00
9:55 am 09:55 Cloudy 73 22.8 67 19.3 81 81 WSW 17 28 29.88 1012 10 16 0.00 0.00
10:15 am 10:15 Cloudy 74 23.1 67 19.6 81 81 SW 13 20 29.85 1011 10 16 0.00 0.00
10:35 am 10:35 Mostly Cloudy 75 24.1 67 19.7 77 77 SW 17 28 29.85 1011 10 16 0.00 0.00
10:55 am 10:55 Cloudy 75 24.1 67 19.7 77 77 WSW 15 24 29.85 1011 10 16 0.00 0.00
11:15 am 11:15 Mostly Cloudy 77 24.8 68 20.1 75 75 WSW 16 26 29.85 1011 10 16 0.00 0.00
11:35 am 11:35 Mostly Cloudy 77 24.8 68 20.1 75 75 SW 12 19 29.85 1011 10 16 0.00 0.00
11:55 am 11:55 Cloudy 76 24.7 68 20.1 76 76 WSW 12 19 29.85 1011 10 16 0.00 0.00
12:15 pm 12:15 Cloudy 78 25.3 69 20.6 75 75 WSW 12 19 29.85 1011 10 16 0.00 0.00
12:35 pm 12:35 Cloudy 76 24.7 69 20.3 77 77 SW 13 20 29.85 1011 10 16 0.00 0.00
12:55 pm 12:55 Cloudy 76 24.3 69 20.4 79 79 SW 12 19 29.85 1011 10 16 0.00 0.00
1:15 pm 13:15 Cloudy 78 25.3 70 20.9 77 77 SW 12 19 29.85 1011 10 16 0.00 0.00
1:35 pm 13:35 Cloudy 77 24.9 69 20.7 78 78 SW 13 20 29.85 1011 10 16 0.00 0.00
1:55 pm 13:55 Partly Cloudy 81 27.3 71 21.8 72 72 WSW 14 22 29.83 1010 10 16 0.00 0.00
2:15 pm 14:15 Partly Cloudy 80 26.8 70 21 71 71 SW 14 22 29.80 1009 10 16 0.00 0.00
2:35 pm 14:35 Partly Cloudy 82 27.5 71 21.4 69 69 SW 15 24 29.80 1009 10 16 0.00 0.00
2:55 pm 14:55 Partly Cloudy 82 27.6 71 21.5 69 69 SW 12 19 29.80 1009 10 16 0.00 0.00
3:15 pm 15:15 Partly Cloudy 82 28 70 21.2 67 67 WSW 16 26 29.80 1009 10 16 0.00 0.00
3:35 pm 15:35 Partly Cloudy 82 27.9 70 21.3 67 67 SW 13 20 29.80 1009 10 16 0.00 0.00
3:55 pm 15:55 Mostly Cloudy 82 27.6 70 21 67 67 WSW 13 20 29.80 1009 10 16 0.00 0.00
4:15 pm 16:15 Mostly Cloudy 82 27.5 70 21 68 68 SW 15 24 29.80 1009 10 16 0.00 0.00
4:35 pm 16:35 Cloudy 81 27.4 70 21 68 68 WSW 17 28 29.80 1009 10 16 0.00 0.00
4:55 pm 16:55 Mostly Cloudy 82 27.9 70 21.2 67 67 SW 15 24 29.77 1008 10 16 0.00 0.00
5:15 pm 17:15 Partly Cloudy 82 27.8 69 20.7 65 65 SW 15 24 29.77 1008 10 16 0.00 0.00
5:35 pm 17:35 Cloudy 81 27 70 21.1 70 70 WSW 10 17 29.77 1008 10 16 0.00 0.00
5:55 pm 17:55 Cloudy with Light Rain 80 26.5 70 21.1 72 72 WSW 5 7 29.77 1008 10 16 0.00 0.00
6:15 pm 18:15 Cloudy 80 26.8 70 21.3 72 72 SW 8 13 29.77 1008 10 16 0.00 0.00
6:35 pm 18:35 Cloudy 81 27.4 71 21.6 71 71 WSW 13 20 29.77 1008 10 16 0.00 0.00
6:55 pm 18:55 Mostly Cloudy 81 27.3 70 21.3 70 70 SW 8 13 29.77 1008 10 16 0.00 0.00
7:15 pm 19:15 Partly Cloudy 82 27.5 71 21.7 71 71 WSW 8 13 29.77 1008 10 16 0.00 0.00
7:35 pm 19:35 Partly Cloudy 81 27.4 71 21.7 71 71 WSW 7 11 29.77 1008 10 16 0.00 0.00
7:55 pm 19:55 Partly Cloudy 81 27 71 21.4 71 71 WSW 6 9 29.77 1008 10 16 0.00 0.00
8:15 pm 20:15 Sunny 80 26.7 69 20.8 70 70 W 8 13 29.77 1008 10 16 0.00 0.00
8:35 pm 20:35 Sunny 77 25.1 71 21.8 82 82 SW 7 11 29.83 1010 10 16 0.00 0.00
8:55 pm 20:55 Partly Cloudy 76 24.3 71 21.7 85 85 WSW 5 7 29.83 1010 10 16 0.00 0.00
9:15 pm 21:15 Clear 74 23.6 71 21.6 89 89 WSW 5 7 29.83 1010 10 16 0.00 0.00
9:35 pm 21:35 Clear 73 22.6 70 21.3 92 92 Calm 29.83 1010 10 16 0.00 0.00
9:55 pm 21:55 Clear 71 21.9 70 21.1 95 95 WSW 3 6 29.83 1010 10 16 0.00 0.00
10:15 pm 22:15 Clear 71 21.4 69 20.8 96 96 WNW 3 6 29.83 1010 10 16 0.00 0.00
10:35 pm 22:35 Clear 71 21.6 69 20.3 92 92 W 3 6 29.83 1010 10 16 0.00 0.00
10:55 pm 22:55 Clear 70 20.9 68 20.2 96 96 W 5 7 29.85 1011 10 16 0.00 0.00
11:15 pm 23:15 Partly Cloudy 69 20.8 68 20.1 96 96 W 3 6 29.85 1011 10 16 0.00 0.00
11:35 pm 23:35 Mostly Cloudy 69 20.6 68 19.8 95 95 Calm 29.85 1011 10 16 0.00 0.00
11:55 pm 23:55 Cloudy 70 20.9 68 20.1 95 95 WSW 3 6 29.85 1011 10 16 0.00 0.00

Powered by AerisWeather